Retour au catalogue

COSMOS 1174 DEB

ActifLEO
NORAD 11778·DEBRIS·🇷🇺 Russia

Lancé Apr 18, 1980 depuis Baikonur Cosmodrome

Loading…

Prochains Passages (prochaines 24 heures)

TLE

FraisSource: Space-Track

Époque: Sep 13, 2026, 22:05 UTC

1 11778U 80030K   26256.92082544  .00000519  00000-0  21840-3 0  9993
2 11778  66.4754 133.4808 0437821 260.7210  94.4118 13.92086256296262

Suivez COSMOS 1174 DEB en temps réel avec AllMySat

Download on the App Store